Weather History for KRFD - May, 2012

Change the Weather History Date:

Saturday, May 5, 2012

  Actual Average Record
Temperature  
Mean Temperature 60 °F 57 °F  
Max Temperature 65 °F 68 °F 93 °F (1949)
Min Temperature 54 °F 45 °F 29 °F (1944)
Degree Days  
Heating Degree Days 5 9  
Month to date heating degree days 18 48  
Since 1 July heating degree days 5258 6388  
Cooling Degree Days 0 1  
Month to date cooling degree days 17 3  
Year to date cooling degree days 55 11  
Growing Degree Days 10 (Base 50)    
Moisture  
Dew Point 54 °F    
Average Humidity 83    
Maximum Humidity 93    
Minimum Humidity 72    
Precipitation  
Precipitation 0.00 in 0.11 in 1.53 in (1965)
Month to date precipitation 0.20 0.56  
Year to date precipitation 8.96 9.01  
Snow  
Snow 0.00 in 0.00 in T in (2014)
Month to date snowfall 0.0 0.0  
Since 1 July snowfall 24.3 36.7  
Snow Depth 0.00 in    
Sea Level Pressure  
Sea Level Pressure 30.02 in    
Wind  
Wind Speed 10 mph (ENE)    
Max Wind Speed 17 mph    
Max Gust Speed 22 mph    
Visibility 8 miles    
Events      
T = Trace of Precipitation, MM = Missing Value Source: NWS Daily Summary

Daily Weather History Graph

Daily Weather History Graph

Search for Another Location

Airport or City:

Trip Planner

Search our weather history database for the weather conditions in past years. The results will help you decide how hot, cold, wet, or windy it might be!

Date:

Astronomy

May. 05, 2012 Rise Set
Actual Time 5:46 AM CDT 8:00 PM CDT
Civil Twilight 5:15 AM CDT 8:31 PM CDT
Nautical Twilight 4:36 AM CDT 9:10 PM CDT
Astronomical Twilight 3:54 AM CDT 9:52 PM CDT
Moon 7:53 PM CDT (5/5) 5:08 AM CDT (5/5)
Length of Visible Light 15h 16m
Length of Day
14h 14m
Full, 100% of the Moon is Illuminated
May 5
Full
May 5
Full
May 12
Last Quarter
May 20
New
May 28
First Quarter

Hourly Weather History & Observations

Time (CDT) Temp. Dew Point Humidity Pressure Visibility Wind Dir Wind Speed Gust Speed Precip Events Conditions
12:15 AM 59.0 °F 50.0 °F 72% 29.97 in 10.0 mi ENE 8.1 mph - N/A   Overcast
12:54 AM 57.9 °F 50.0 °F 75% 29.97 in 10.0 mi NE 8.1 mph - N/A   Overcast
1:26 AM 59.0 °F 51.8 °F 77% 29.97 in 10.0 mi NE 6.9 mph - N/A   Overcast
1:54 AM 59.0 °F 52.0 °F 78% 29.97 in 10.0 mi ENE 5.8 mph - N/A   Overcast
2:05 AM 59.0 °F 53.6 °F 82% 29.96 in 10.0 mi ENE 6.9 mph - N/A   Overcast
2:54 AM 59.0 °F 53.1 °F 81% 29.96 in 10.0 mi ENE 3.5 mph - N/A   Overcast
3:54 AM 57.9 °F 55.0 °F 90% 29.97 in 6.0 mi ESE 9.2 mph - N/A   Overcast
4:54 AM 57.9 °F 55.9 °F 93% 30.00 in 5.0 mi NE 6.9 mph - N/A   Overcast
5:54 AM 57.9 °F 55.9 °F 93% 29.99 in 4.0 mi NE 6.9 mph - N/A   Overcast
6:54 AM 59.0 °F 55.0 °F 87% 30.01 in 5.0 mi NE 9.2 mph - N/A   Overcast
7:54 AM 59.0 °F 55.0 °F 87% 30.01 in 5.0 mi ENE 8.1 mph - N/A   Overcast
8:54 AM 60.1 °F 55.9 °F 86% 30.03 in 4.0 mi ENE 6.9 mph - N/A   Overcast
9:54 AM 61.0 °F 57.0 °F 87% 30.03 in 3.0 mi ENE 8.1 mph - N/A   Overcast
10:54 AM 61.0 °F 57.0 °F 87% 30.04 in 4.0 mi ENE 10.4 mph - N/A   Overcast
11:54 AM 62.1 °F 55.9 °F 80% 30.03 in 7.0 mi ENE 12.7 mph - N/A   Overcast
12:46 PM 62.6 °F 55.4 °F 77% 30.04 in 8.0 mi NE 10.4 mph - N/A   Overcast
12:54 PM 62.1 °F 54.0 °F 75% 30.04 in 8.0 mi East 11.5 mph - N/A   Overcast
1:36 PM 62.6 °F 55.4 °F 77% 30.03 in 8.0 mi East 11.5 mph - N/A   Overcast
1:54 PM 63.0 °F 55.0 °F 75% 30.03 in 9.0 mi ENE 9.2 mph 16.1 mph N/A   Overcast
2:54 PM 64.0 °F 55.0 °F 73% 30.02 in 10.0 mi ENE 12.7 mph - N/A   Overcast
3:54 PM 64.0 °F 55.0 °F 73% 30.02 in 10.0 mi ENE 13.8 mph - N/A   Overcast
4:54 PM 64.0 °F 55.9 °F 75% 30.03 in 10.0 mi ENE 8.1 mph - N/A   Overcast
5:54 PM 64.9 °F 57.0 °F 75% 30.03 in 10.0 mi ENE 10.4 mph - N/A   Overcast
6:54 PM 64.0 °F 55.9 °F 75% 30.05 in 10.0 mi ENE 10.4 mph - N/A   Overcast
7:44 PM 62.6 °F 55.4 °F 77% 30.06 in 10.0 mi ENE 11.5 mph - N/A   Overcast
7:54 PM 62.1 °F 55.0 °F 78% 30.06 in 10.0 mi ENE 12.7 mph - N/A   Overcast
8:54 PM 59.0 °F 53.1 °F 81% 30.06 in 10.0 mi ENE 10.4 mph - N/A   Overcast
9:41 PM 57.2 °F 53.6 °F 88% 30.04 in 10.0 mi East 9.2 mph 18.4 mph N/A   Overcast
9:54 PM 57.0 °F 53.1 °F 87% 30.06 in 10.0 mi NE 12.7 mph - N/A   Overcast
10:54 PM 55.9 °F 52.0 °F 87% 30.06 in 10.0 mi ENE 9.2 mph 18.4 mph N/A   Overcast
11:54 PM 54.0 °F 51.1 °F 90% 30.03 in 10.0 mi East 10.4 mph - N/A   Overcast